sat.trackr.live / text

‹ back to catalog

STARLINK-31869

NORAD 60196 · 2024-124P

PAYLOAD ACTIVE UNKNOWN

§ Identity

Operator
Country
US
Launch date
2024-07-03
Launch site
AFETR
Launch vehicle
Mass (kg)
RCS (m²)

Purposes: comms

External: N2YO · Heavens-Above · Gunter

§ Orbital elements

Epoch: 2026-05-24T22:31:44.810112Z

Period
94.01 min
Inclination
53.1612°
Eccentricity
0.0000850
Mean motion
15.31711474 rev/d
Perigee alt
470.1 km
Apogee alt
471.3 km
Semi-major
6,848.8 km
B*
6.0094e-5
RAAN
328.0542°
Arg perigee
80.8446°
Mean anomaly
279.2651°
Rev number
10,597

§ Raw data

STARLINK-318691 60196U 24124P   26144.93871308  .00001501  00000+0  60094-4 0  99902 60196  53.1612 328.0542 0000850  80.8446 279.2651 15.31711474105977

JSON: /api/v1/satellites/60196 · /tle

For live sub-satellite position, see the globe view (requires WebGL).

§ Visibility from observer

Set your observer location to see the next 7 days of passes ≥ 10°. The values pass through the URL so the page stays shareable.

No JS? Fill the form by hand. The geolocation button needs JavaScript.